BSAT-4A

Last updated on Thu Aug 13 2026 00:03:01 GMT+0000 (Coordinated Universal Time)

1 42951U 17059B 26224.58927887 -.00000368 00000+0 00000+0 0 9999 2 42951 0.0384 0.7854 0002668 91.2093 191.0078 1.00271818 32366
UTC large
Height (km)
Speed (km/s)
/
Latitude / Longitude
Inclination (degrees)
Orbital Period (minutes)
Azimuth
Elevation
Range (km)
Doppler Factor

Next 0 passes for location: London (51.5072 / 0.1276)

No passes found over London.
BSAT-4A